Torna al catalogo

STARLINK-4667

AttivoComunicazioniVLEO
NORAD 53707·PAYLOAD·🇺🇸 United States

Lanciato Sep 5, 2022 da Cape Canaveral Space Force Station

Loading…

Prossimi Passaggi (prossime 24 ore)

TLE

AggiornatoSource: CelesTrak SupGP

Epoca: Sep 15, 2026, 02:25 UTC

1 53707C 22107H   26258.10118056 -.00012127  00000+0 -35834-3 0  2587
2 53707  53.1583  86.6130 0001194  83.3928 296.2238 15.34393600    18

Traccia STARLINK-4667 in tempo reale con AllMySat

Download on the App Store